[[{"header":{"parameterUnit":"m.s-1","parameterCategory":1,"la1":30.2991,"la2":30.254,"lo1":-89.0895,"lo2":-89.0444,"dy":0.0017,"dx":0.0017,"nx":28,"ny":28,"refTime":"2025-07-16T21:00:00:Z","depth":0,"parameterNumber":2,"parameterNumberName":"U-component_of_WINDS"},"data":[0,0,0,0,0,0,0,0,0,0,0,0,0,0,0,0,0,0,0,0,0,0,0,0,0,0,0,0,0,0,0,0,0,0,0,0,0,0,0,0,0,0,0,0,0,0,0,0,0,0,0,0,0,0,0,0,0,0,1.9121,1.9122,0,1.9132,1.9132,1.9132,1.9101,1.91,1.9099,1.9098,1.9108,1.9109,1.911,0,0,0,0,0,0,0,0,0,0,0,0,0,1.9073,1.9074,1.9121,1.9122,1.9122,1.9132,1.9132,1.9132,1.9101,1.91,1.9099,1.9098,1.9107,1.9108,1.911,0,0,0,0,0,0,0,0,0,0,0,0,0,1.909,1.9075,1.9121,1.9108,1.9106,1.9132,1.9132,1.9132,1.9101,1.91,1.9099,1.9097,1.9107,1.9108,1.911,1.9149,0,0,1.9115,1.9116,0,0,0,0,0,0,0,0,1.9089,1.9092,1.9109,1.9109,1.9107,1.9114,1.9118,1.9137,1.9102,1.9103,1.9098,1.9097,1.9111,1.9112,1.9117,1.9149,1.915,1.9115,1.9116,1.9117,1.9118,0,0,0,0,0,0,0,1.9088,1.9091,1.9125,1.911,1.9108,1.91,1.9101,1.9122,1.9115,1.9103,1.9101,1.9102,1.911,1.9115,1.9117,1.915,1.9115,1.9117,1.9118,1.9119,1.9212,1.9213,0,0,0,0,0,0,1.9089,1.909,1.9125,1.9126,1.9095,1.9102,1.9103,1.9113,1.9114,1.9113,1.9104,1.9101,1.9113,1.9115,1.9117,1.9161,1.9117,1.9119,1.912,1.9211,1.9212,1.9214,0,0,0,0,0,0,1.9088,1.9092,1.9125,1.9107,1.9111,1.9105,1.9116,1.9114,1.9119,1.9115,1.9113,1.9111,1.9112,1.9115,1.9141,1.9161,1.9119,1.9121,1.9209,1.9211,1.9213,1.9249,0,0,0,0,0,0,1.9087,1.9092,1.9107,1.9108,1.9112,1.9149,1.9117,1.9115,1.9123,1.9119,1.9121,1.912,1.9111,1.9138,1.9142,1.9162,1.9122,1.9207,1.921,1.9213,1.9246,1.9252,1.9258,0,0,0,0,0,1.9085,1.9117,1.9108,1.9113,1.9131,1.915,1.9152,1.9142,1.9124,1.9139,1.9136,1.912,1.9158,1.9141,1.9146,1.9166,1.9206,1.9209,1.9212,1.9244,1.9251,1.9258,0,0,0,0,0,0,1.9119,1.9117,1.9107,1.9141,1.9146,1.9145,1.9163,1.915,1.916,1.9156,1.9143,1.9143,1.9171,1.9172,1.9153,1.9203,1.9179,1.9183,1.9201,1.9208,1.9214,1.9213,1.9124,0,0,0,0,0,1.913,1.9146,1.9144,1.9174,1.9177,1.917,1.9177,1.9169,1.9173,1.9175,1.9174,1.9179,1.9191,1.92,1.9212,1.9247,1.9246,1.9263,1.9269,1.9273,1.9277,1.9293,1.93,1.9225,1.9225,1.9225,0,0,1.9154,1.9155,1.9166,1.918,1.9183,1.9199,1.9171,1.919,1.9201,1.9178,1.9202,1.9201,1.9206,1.9236,1.9249,1.9237,1.9298,1.9278,1.9282,1.9282,1.9297,1.9304,1.9311,1.9227,1.9227,1.9226,0,0,1.9204,1.9208,1.9232,1.9235,1.924,1.9235,1.9241,1.9242,1.924,1.9264,1.9246,1.926,1.9283,1.9286,1.929,1.9341,1.9326,1.9346,1.9375,1.9391,1.9397,1.9402,1.9419,1.9425,1.9349,1.935,1.935,0,1.9233,1.9257,1.9246,1.9265,1.9271,1.9251,1.9274,1.9278,1.9287,1.9291,1.9278,1.9305,1.9306,1.9336,1.9348,1.9353,1.9358,1.9345,1.9397,1.9402,1.9407,1.9422,1.9429,1.9352,1.9351,1.9351,1.9351,0,1.929,1.9307,1.9326,1.9334,1.9343,1.9364,1.9355,1.9365,1.9356,1.9352,1.9376,1.9377,1.9388,1.9395,1.9386,1.9423,1.9415,1.94,1.9375,1.9416,1.943,1.9436,1.9355,1.9354,1.9353,1.9353,0,0,1.9362,1.9363,1.937,1.9373,1.9376,1.9389,1.9409,1.9419,1.9427,1.9434,1.9449,1.9469,1.9454,1.946,1.9451,1.9466,1.9503,1.9448,1.9448,1.9457,1.9542,1.9551,1.9558,1.9494,1.9496,1.9496,1.9541,0,1.941,1.9444,1.9434,1.9468,1.9483,1.9463,1.9481,1.9484,1.9481,1.9492,1.9489,1.9502,1.9483,1.9486,1.95,1.9496,1.952,1.9493,1.9507,1.9508,1.9505,1.9566,1.9577,1.9618,1.9546,1.9547,1.9548,0,1.9471,1.9479,1.9514,1.9513,1.9519,1.9535,1.9543,1.9554,1.9558,1.9554,1.956,1.9548,1.9567,1.9544,1.9568,1.955,1.9555,1.9555,1.9556,1.9555,1.9529,1.9565,1.9631,1.9637,1.9557,1.9556,1.9555,0,1.9516,1.9537,1.956,1.9563,1.9563,1.9574,1.9575,1.9577,1.9584,1.9591,1.9595,1.9604,1.9609,1.9616,1.9607,1.9591,1.9632,1.9609,1.9629,1.9629,1.9637,1.9636,1.9703,1.9644,1.9644,1.9644,1.9644,0,1.957,1.9592,1.958,1.9594,1.9617,1.9606,1.9629,1.9628,1.9629,1.9642,1.9627,1.9639,1.9627,1.9638,1.9631,1.9652,1.9654,1.9651,1.9649,1.9651,1.9652,1.9653,1.9649,1.9645,1.9645,1.9645,1.9644,0,1.9624,1.9618,1.9641,1.964,1.964,1.9657,1.9655,1.9668,1.9663,1.968,1.9683,1.9676,1.9688,1.968,1.9692,1.9688,1.9714,1.9708,1.9712,1.971,1.973,1.9727,1.9798,1.9806,1.9744,1.9745,1.9745,0,1.9658,1.9674,1.9674,1.9681,1.9683,1.9695,1.9702,1.9691,1.9698,1.9702,1.9714,1.9725,1.9732,1.9752,1.9748,1.9757,1.9751,1.9775,1.9752,1.9753,1.9748,1.9747,1.9747,1.9779,1.978,1.978,1.9781,0,1.9718,1.9713,1.9723,1.9731,1.9739,1.9745,1.975,1.9757,1.9746,1.9755,1.9767,1.9773,1.9785,1.9795,1.9802,1.9802,1.9789,1.9789,1.9793,1.9795,1.9796,1.9793,1.9723,1.9786,1.9786,1.9785,1.9785,1.9785,1.9761,1.9774,1.9775,1.9786,1.9789,1.9793,1.9804,1.9801,1.9811,1.982,1.9813,1.9827,1.9829,1.9837,1.9839,1.9849,1.9839,1.9846,1.9848,1.9849,1.9851,1.9796,1.985,1.985,1.985,1.985,1.985,0,1.9818,1.9818,1.9828,1.9835,1.9843,1.9831,1.9835,1.9843,1.9855,1.9858,1.9866,1.9879,1.9888,1.9885,1.9893,1.9902,1.9896,1.9904,1.9903,1.9903,1.986,1.9854,1.9909,1.9909,1.9909,1.9909,1.9909,1.9909,1.9848,1.9868,1.9864,1.9885,1.9884,1.9897,1.9901,1.9904,1.9906,1.9922,1.9929,1.9927,1.9927,1.9935,1.9943,1.9942,1.9945,1.9955,1.9952,1.9912,1.9906,1.99,1.9894,1.9956,1.9956,1.9993,1.9993,1.9993]},{"header":{"parameterUnit":"m.s-1","parameterCategory":1,"la1":30.2991,"la2":30.254,"lo1":-89.0895,"lo2":-89.0444,"dy":0.0017,"dx":0.0017,"nx":28,"ny":28,"refTime":"2025-07-16T21:00:00:Z","depth":0,"parameterNumber":3,"parameterNumberName":"V-component_of_WINDS"},"data":[0,0,0,0,0,0,0,0,0,0,0,0,0,0,0,0,0,0,0,0,0,0,0,0,0,0,0,0,0,0,0,0,0,0,0,0,0,0,0,0,0,0,0,0,0,0,0,0,0,0,0,0,0,0,0,0,0,0,1.2122,1.2125,0,1.2389,1.2392,1.2395,1.2487,1.2486,1.2485,1.2484,1.2776,1.2784,1.2793,0,0,0,0,0,0,0,0,0,0,0,0,0,1.171,1.1717,1.2122,1.2125,1.2129,1.2389,1.2392,1.2396,1.2487,1.2486,1.2484,1.2483,1.2773,1.2783,1.2794,0,0,0,0,0,0,0,0,0,0,0,0,0,1.1924,1.1719,1.2122,1.2205,1.2215,1.2388,1.2393,1.2397,1.2487,1.2486,1.2484,1.2482,1.2769,1.2782,1.2795,1.291,0,0,1.2835,1.2841,0,0,0,0,0,0,0,0,1.1912,1.1939,1.2189,1.22,1.2211,1.2403,1.2354,1.257,1.2488,1.2385,1.2484,1.2482,1.2654,1.2677,1.2731,1.2924,1.2936,1.2837,1.2845,1.285,1.2854,0,0,0,0,0,0,0,1.1897,1.1928,1.2228,1.2193,1.2206,1.2235,1.2264,1.2395,1.2526,1.2393,1.2401,1.243,1.266,1.2718,1.2739,1.2941,1.2836,1.2848,1.2856,1.2861,1.3245,1.3247,0,0,0,0,0,0,1.1865,1.1915,1.222,1.2236,1.2054,1.2244,1.2276,1.2343,1.2525,1.255,1.2431,1.2433,1.2696,1.2723,1.2749,1.2897,1.285,1.2863,1.287,1.3242,1.3245,1.3248,0,0,0,0,0,0,1.1856,1.1892,1.2209,1.2078,1.212,1.2253,1.2328,1.2349,1.2407,1.2553,1.2579,1.2465,1.2696,1.2731,1.2869,1.2908,1.2869,1.2881,1.324,1.3243,1.3246,1.3192,0,0,0,0,0,0,1.1844,1.1888,1.1928,1.2078,1.2127,1.2318,1.233,1.2356,1.2428,1.2433,1.2592,1.2617,1.2697,1.2848,1.2882,1.2926,1.2891,1.3237,1.3241,1.3245,1.3191,1.3193,1.3195,0,0,0,0,0,1.1829,1.1906,1.193,1.1966,1.2179,1.232,1.2349,1.2435,1.243,1.2475,1.2569,1.2612,1.2898,1.2862,1.29,1.2949,1.3235,1.324,1.3245,1.319,1.3193,1.3195,0,0,0,0,0,0,1.1764,1.1927,1.1955,1.2082,1.2185,1.2335,1.2394,1.2435,1.2547,1.2548,1.2656,1.2691,1.2821,1.29,1.2856,1.3071,1.307,1.3083,1.3015,1.3019,1.302,1.3,1.2902,0,0,0,0,0,1.1763,1.1857,1.1998,1.2096,1.2146,1.2261,1.2326,1.2382,1.2497,1.2543,1.2647,1.2762,1.2878,1.2953,1.3068,1.3203,1.3241,1.3256,1.3258,1.3259,1.3269,1.3349,1.3358,1.3264,1.3264,1.3264,0,0,1.1765,1.1866,1.192,1.2086,1.2173,1.2274,1.2297,1.2404,1.2482,1.2562,1.2696,1.2777,1.2913,1.305,1.3116,1.3119,1.3304,1.3265,1.3265,1.3275,1.3356,1.3364,1.3372,1.3268,1.3267,1.3267,0,0,1.1819,1.1903,1.1994,1.208,1.221,1.2286,1.2307,1.2451,1.2506,1.2642,1.2704,1.2802,1.2999,1.3094,1.3168,1.3258,1.3303,1.3294,1.3305,1.3382,1.3389,1.3396,1.3431,1.3441,1.3303,1.3303,1.3303,0,1.1806,1.1954,1.2038,1.214,1.2213,1.2284,1.2381,1.2462,1.2626,1.2677,1.2677,1.2926,1.3023,1.3184,1.3205,1.3263,1.3295,1.3276,1.338,1.3388,1.3396,1.3431,1.3443,1.3301,1.3302,1.3302,1.3302,0,1.1934,1.2036,1.2096,1.2244,1.2325,1.2424,1.2528,1.26,1.2651,1.2728,1.2869,1.2986,1.3127,1.317,1.3223,1.334,1.3338,1.3357,1.3358,1.3401,1.3436,1.3449,1.3298,1.3299,1.33,1.33,0,0,1.1955,1.2146,1.2167,1.2236,1.2384,1.2469,1.2574,1.2705,1.2766,1.2877,1.2971,1.3136,1.3155,1.3239,1.3304,1.3371,1.3438,1.3383,1.3388,1.339,1.3578,1.3562,1.3575,1.3468,1.347,1.3473,1.3567,0,1.2029,1.221,1.2289,1.2439,1.2537,1.2606,1.2699,1.2803,1.2879,1.2979,1.3066,1.3181,1.3197,1.3248,1.3317,1.3414,1.3477,1.3409,1.3562,1.3566,1.3525,1.3593,1.3577,1.3659,1.358,1.3583,1.3585,0,1.2139,1.2243,1.24,1.2537,1.2582,1.2662,1.279,1.2882,1.3005,1.3056,1.3148,1.3209,1.3329,1.332,1.3489,1.3441,1.3509,1.3566,1.3572,1.359,1.3578,1.3615,1.3688,1.37,1.3606,1.3604,1.3603,0,1.2139,1.2321,1.2438,1.2495,1.2657,1.2713,1.2784,1.2904,1.2979,1.3093,1.3144,1.3272,1.3344,1.3445,1.3542,1.3526,1.3703,1.3702,1.3753,1.3751,1.3788,1.3784,1.3873,1.3829,1.3829,1.3829,1.3828,0,1.2214,1.2308,1.244,1.2512,1.2621,1.2714,1.2821,1.2899,1.3005,1.3099,1.317,1.3258,1.3379,1.3484,1.3562,1.3691,1.3724,1.3772,1.3792,1.3766,1.376,1.3813,1.381,1.3832,1.3831,1.3831,1.383,0,1.2233,1.2324,1.2457,1.2599,1.2637,1.2711,1.2836,1.2913,1.2991,1.3109,1.3143,1.3269,1.3397,1.3502,1.3672,1.3724,1.386,1.3882,1.3816,1.3826,1.3872,1.3866,1.3999,1.4023,1.3961,1.3961,1.3961,0,1.2275,1.2348,1.2496,1.256,1.2629,1.2732,1.2807,1.2903,1.298,1.3125,1.3185,1.3316,1.3426,1.3628,1.3739,1.387,1.3897,1.3935,1.3918,1.389,1.39,1.3894,1.3904,1.3937,1.3937,1.3937,1.3937,0,1.234,1.2381,1.2482,1.26,1.2686,1.2786,1.2888,1.2938,1.3055,1.3138,1.3265,1.335,1.352,1.3652,1.3794,1.3876,1.3928,1.3941,1.396,1.3935,1.3894,1.3918,1.3821,1.3938,1.3938,1.3938,1.3938,1.3938,1.2373,1.2441,1.2555,1.2667,1.2752,1.2846,1.2924,1.3011,1.3117,1.3258,1.3311,1.3442,1.3568,1.3763,1.3845,1.3955,1.3961,1.3988,1.3996,1.4001,1.3998,1.3875,1.3981,1.3981,1.3982,1.3982,1.3982,0,1.2443,1.2519,1.262,1.2757,1.2847,1.288,1.2996,1.307,1.3182,1.3291,1.3396,1.3545,1.3673,1.3793,1.3929,1.3993,1.4021,1.4026,1.4023,1.4042,1.3984,1.3954,1.4001,1.4001,1.4001,1.4001,1.4001,1.4001,1.2489,1.2606,1.2661,1.2824,1.2903,1.3026,1.3089,1.3178,1.3265,1.3425,1.3529,1.3604,1.3721,1.3865,1.3986,1.4019,1.4067,1.4066,1.4106,1.4049,1.4046,1.4043,1.4015,1.4075,1.4075,1.4155,1.4156,1.4156]}]]